Date String (YYYY-MM-DD hh:mm:ss) UTC,Instrument flags,absolute air pressure of the measurement (hPa),sample flow rate (lpm),inlet stack bypass flow (lpm),air temperature of the measurement (°C),ambient temperature measured by the external sensor (°C),aerosol sample conditioner tube jacket temperature (°C),OPC LED temperature (°C),internal box temperature (°C),relative humidity of the measurement (%),span deviation,mass concentration of particles derived from Lorenz-Mie calculation of OPC scattering (μg/m³),mass concentration of particles derived from Lorenz-Mie calculation of OPC scattering (μg/m³),mass concentration of particles derived from Lorenz-Mie calculation of OPC scattering (μg/m³)
DateTimeUTC,F1_M11,P_M11,Q1_M11,Q2_M11,T1_M11,T2_M11,T3_M11,T4_M11,T5_M11,U1_M11,ZSPAN_M11,X0_M11,X2_M11,X1_M11
2024-02-05 09:00:00,SystemResetWarning,0830.0,5.00,000.00,018.5,017.9,000.0,026.8,020.1,15.8,0000.0,0002.53,0001.39,0001.24
2024-02-05 09:01:00,SystemResetWarning,0830.0,5.00,000.00,018.5,017.8,000.0,026.8,020.0,15.8,0000.0,0002.54,0001.39,0001.24
2024-02-05 09:02:00,SystemResetWarning,0830.0,5.00,000.00,018.4,017.8,000.0,026.8,020.0,15.8,0000.0,0002.50,0001.38,0001.23
2024-02-05 09:03:00,SystemResetWarning,0830.0,5.00,000.00,018.4,017.7,000.0,026.8,020.0,15.8,0000.0,0002.42,0001.35,0001.22
2024-02-05 09:04:00,SystemResetWarning,0830.0,5.00,000.00,018.4,017.7,000.0,026.9,020.0,16.0,0000.0,0002.40,0001.35,0001.21
2024-02-05 09:05:00,SystemResetWarning,0830.0,5.00,000.00,018.4,017.7,000.0,026.9,020.0,16.2,0000.0,0002.36,0001.33,0001.21
2024-02-05 09:06:00,SystemResetWarning,0830.0,5.01,000.00,018.4,017.6,000.0,026.9,020.0,16.2,0000.0,0002.32,0001.33,0001.21
2024-02-05 09:07:00,SystemResetWarning,0830.1,5.01,000.00,018.4,017.6,000.0,026.9,020.0,16.2,0000.0,0002.26,0001.34,0001.23
2024-02-05 09:08:00,SystemResetWarning,0830.0,4.99,000.00,018.4,017.8,000.0,027.0,020.2,16.2,0000.0,0001.65,0001.41,0001.29
2024-02-05 09:09:00,SystemResetWarning,0830.0,5.01,000.00,018.6,018.6,000.0,027.1,020.7,15.9,0000.0,0001.77,0001.46,0001.35
2024-02-05 09:10:00,SystemResetWarning,0830.0,4.98,000.00,018.8,019.1,000.0,027.1,021.0,15.6,0000.0,0002.04,0001.50,0001.39
2024-02-05 09:11:00,SystemResetWarning,0830.0,5.00,000.00,018.8,018.9,000.0,027.0,020.8,15.5,0000.0,0002.20,0001.57,0001.45
2024-02-05 09:12:00,SystemResetWarning,0830.0,5.01,000.00,018.8,018.8,000.0,027.0,020.6,15.5,0000.0,0002.25,0001.59,0001.46
2024-02-05 09:13:00,SystemResetWarning,0830.0,5.01,000.00,018.8,018.7,000.0,027.0,020.5,15.4,0000.0,0002.29,0001.62,0001.48
2024-02-05 09:14:00,SystemResetWarning,0830.0,5.00,000.00,018.7,018.5,000.0,026.9,020.4,15.4,0000.0,0002.30,0001.61,0001.48
2024-02-05 09:15:00,SystemResetWarning,0829.9,4.99,000.00,018.7,018.4,000.0,026.9,020.4,15.3,0000.0,0002.29,0001.60,0001.48
2024-02-05 09:16:00,SystemResetWarning,0829.9,5.00,000.00,018.7,018.3,000.0,026.9,020.3,15.3,0000.0,0002.29,0001.60,0001.46
2024-02-05 09:17:00,SystemResetWarning,0829.9,4.99,000.00,018.7,018.2,000.0,026.9,020.3,15.3,0000.0,0002.28,0001.57,0001.46
2024-02-05 09:18:00,SystemResetWarning,0829.9,5.00,000.00,018.6,018.1,000.0,026.9,020.2,15.4,0000.0,0002.26,0001.55,0001.43
2024-02-05 09:19:00,SystemResetWarning,0829.9,5.00,000.00,018.6,018.1,000.0,026.9,020.2,15.5,0000.0,0002.19,0001.48,0001.36
2024-02-05 09:20:00,SystemResetWarning,0829.9,5.00,000.00,018.6,018.0,000.0,026.9,020.2,15.7,0000.0,0002.01,0001.39,0001.28
2024-02-05 09:21:00,SystemResetWarning,0829.8,5.02,000.00,018.6,018.0,000.0,026.9,020.1,16.0,0000.0,0001.69,0001.34,0001.23
2024-02-05 09:22:00,SystemResetWarning,0829.8,5.00,000.00,018.5,017.9,000.0,026.8,020.1,16.2,0000.0,0001.53,0001.26,0001.17
2024-02-05 09:23:00,SystemResetWarning,0829.8,4.99,000.00,018.5,017.9,000.0,026.8,020.1,16.3,0000.0,0001.46,0001.23,0001.15
2024-02-05 09:24:00,SystemResetWarning,0829.8,5.00,000.00,018.5,017.8,000.0,026.8,020.0,16.4,0000.0,0001.44,0001.22,0001.15
2024-02-05 09:25:00,SystemResetWarning,0829.8,5.00,000.00,018.4,017.8,000.0,026.8,020.0,16.5,0000.0,0001.43,0001.24,0001.18
2024-02-05 09:26:00,SystemResetWarning,0829.8,5.00,000.00,018.4,017.7,000.0,026.8,020.0,16.5,0000.0,0001.47,0001.27,0001.21
2024-02-05 09:27:00,SystemResetWarning,0829.8,5.01,000.00,018.4,017.7,000.0,026.8,020.0,16.6,0000.0,0001.47,0001.30,0001.24
2024-02-05 09:28:00,SystemResetWarning,0829.8,4.99,000.00,018.4,017.7,000.0,026.8,020.0,16.6,0000.0,0001.49,0001.32,0001.27
2024-02-05 09:29:00,SystemResetWarning,0829.8,5.00,000.00,018.4,017.7,000.0,026.8,020.0,16.6,0000.0,0001.51,0001.35,0001.30
2024-02-05 09:30:00,SystemResetWarning,0829.8,5.00,000.00,018.3,017.6,000.0,026.8,020.0,16.6,0000.0,0001.54,0001.39,0001.34
2024-02-05 09:31:00,SystemResetWarning,0829.7,5.00,000.00,018.3,017.6,000.0,026.8,020.0,16.5,0000.0,0001.58,0001.43,0001.38
2024-02-05 09:32:00,SystemResetWarning,0829.7,5.00,000.00,018.3,017.6,000.0,026.9,020.0,16.5,0000.0,0001.62,0001.47,0001.43
2024-02-05 09:33:00,SystemResetWarning,0829.7,5.01,000.00,018.3,017.6,000.0,026.9,020.0,16.5,0000.0,0001.63,0001.50,0001.47
2024-02-05 09:34:00,SystemResetWarning,0829.7,5.01,000.00,018.4,018.0,000.0,027.0,020.3,16.4,0000.0,0001.66,0001.54,0001.51
2024-02-05 09:35:00,SystemResetWarning,0829.7,4.99,000.00,018.6,018.7,000.0,027.1,020.8,16.3,0000.0,0001.66,0001.55,0001.52
2024-02-05 09:36:00,SystemResetWarning,0829.7,4.99,000.00,018.7,018.8,000.0,027.0,020.8,16.2,0000.0,0001.67,0001.56,0001.52
2024-02-05 09:37:00,SystemResetWarning,0829.7,5.00,000.00,018.7,018.7,000.0,027.0,020.6,16.2,0000.0,0001.69,0001.56,0001.52
2024-02-05 09:38:00,SystemResetWarning,0829.7,5.01,000.00,018.7,018.6,000.0,026.9,020.4,16.3,0000.0,0001.71,0001.57,0001.52
2024-02-05 09:39:00,SystemResetWarning,0829.7,5.00,000.00,018.7,018.4,000.0,026.9,020.4,16.3,0000.0,0001.80,0001.59,0001.53
2024-02-05 09:40:00,SystemResetWarning,0829.6,5.00,000.00,018.6,018.3,000.0,026.9,020.3,16.3,0000.0,0001.89,0001.61,0001.53
2024-02-05 09:41:00,SystemResetWarning,0829.7,5.00,000.00,018.6,018.2,000.0,026.9,020.3,16.4,0000.0,0001.94,0001.63,0001.55
2024-02-05 09:42:00,SystemResetWarning,0829.6,4.99,000.00,018.6,018.1,000.0,026.9,020.2,16.6,0000.0,0001.94,0001.64,0001.56
2024-02-05 09:43:00,SystemResetWarning,0829.7,4.99,000.00,018.6,018.0,000.0,026.8,020.2,16.6,0000.0,0001.93,0001.64,0001.55
2024-02-05 09:44:00,SystemResetWarning,0829.7,5.02,000.00,018.5,018.0,000.0,026.8,020.1,16.5,0000.0,0001.95,0001.66,0001.56
2024-02-05 09:45:00,SystemResetWarning,0829.7,5.01,000.00,018.5,017.9,000.0,026.8,020.1,16.3,0000.0,0002.01,0001.68,0001.59
2024-02-05 09:46:00,SystemResetWarning,0829.6,5.00,000.00,018.5,017.9,000.0,026.8,020.0,16.3,0000.0,0002.13,0001.72,0001.62
2024-02-05 09:47:00,SystemResetWarning,0829.7,4.98,000.00,018.4,017.8,000.0,026.8,020.0,16.4,0000.0,0002.17,0001.74,0001.63
2024-02-05 09:48:00,SystemResetWarning,0829.6,5.00,000.00,018.4,017.8,000.0,026.8,020.0,16.4,0000.0,0002.12,0001.72,0001.62
2024-02-05 09:49:00,SystemResetWarning,0829.7,5.02,000.00,018.4,017.7,000.0,026.8,020.0,16.6,0000.0,0002.07,0001.69,0001.61
2024-02-05 09:50:00,SystemResetWarning,0829.7,4.99,000.00,018.4,017.7,000.0,026.9,020.0,16.5,0000.0,0002.04,0001.68,0001.60
2024-02-05 09:51:00,SystemResetWarning,0829.7,5.01,000.00,018.4,017.7,000.0,026.9,020.0,16.3,0000.0,0001.91,0001.66,0001.60
2024-02-05 09:52:00,SystemResetWarning,0829.7,5.00,000.00,018.4,017.6,000.0,026.9,020.0,16.2,0000.0,0001.90,0001.66,0001.61
2024-02-05 09:53:00,SystemResetWarning,0829.6,5.00,000.00,018.3,017.7,000.0,026.9,020.1,16.2,0000.0,0001.91,0001.66,0001.59
2024-02-05 09:54:00,SystemResetWarning,0829.7,5.00,000.00,018.5,018.3,000.0,027.0,020.5,16.2,0000.0,0001.91,0001.64,0001.57
2024-02-05 09:55:00,SystemResetWarning,0829.7,5.00,000.00,018.7,018.9,000.0,027.1,020.9,16.1,0000.0,0001.90,0001.62,0001.55
2024-02-05 09:56:00,SystemResetWarning,0829.7,4.99,000.00,018.8,018.9,000.0,027.0,020.8,16.0,0000.0,0001.91,0001.60,0001.51
2024-02-05 09:57:00,SystemResetWarning,0829.6,4.99,000.00,018.7,018.7,000.0,027.0,020.6,16.0,0000.0,0001.85,0001.59,0001.48
2024-02-05 09:58:00,SystemResetWarning,0829.5,5.00,000.00,018.7,018.6,000.0,026.9,020.5,16.1,0000.0,0001.77,0001.55,0001.45
2024-02-05 09:59:00,SystemResetWarning,0829.5,5.00,000.00,018.7,018.4,000.0,026.9,020.4,16.1,0000.0,0001.83,0001.56,0001.44
